Year,Month,Day,Hour,Minute,Value (Times are PST for temperature in C)
2015,06,23,00,00,14.10
2015,06,23,00,01,14.10
2015,06,23,00,02,14.00
2015,06,23,00,03,14.00
2015,06,23,00,04,14.00
2015,06,23,00,05,14.00
2015,06,23,00,06,14.00
2015,06,23,00,07,14.00
2015,06,23,00,08,13.90
2015,06,23,00,09,13.90
2015,06,23,00,10,13.90
2015,06,23,00,11,13.90
2015,06,23,00,12,13.90
2015,06,23,00,13,13.80
2015,06,23,00,14,13.80
2015,06,23,00,15,13.80
2015,06,23,00,16,13.80
2015,06,23,00,17,13.80
2015,06,23,00,18,13.70
2015,06,23,00,19,13.70
2015,06,23,00,20,13.70
2015,06,23,00,21,13.70
2015,06,23,00,22,13.70
2015,06,23,00,23,13.60
2015,06,23,00,24,13.60
2015,06,23,00,25,13.60
2015,06,23,00,26,13.50
2015,06,23,00,27,13.50
2015,06,23,00,28,13.50
2015,06,23,00,29,13.40
2015,06,23,00,30,13.40
2015,06,23,00,31,13.40
2015,06,23,00,32,13.40
2015,06,23,00,33,13.30
2015,06,23,00,34,13.30
2015,06,23,00,35,13.30
2015,06,23,00,36,13.30
2015,06,23,00,37,13.30
2015,06,23,00,38,13.20
2015,06,23,00,39,13.20
2015,06,23,00,40,13.20
2015,06,23,00,41,13.20
2015,06,23,00,42,13.10
2015,06,23,00,43,13.10
2015,06,23,00,44,13.10
2015,06,23,00,45,13.10
2015,06,23,00,46,13.00
2015,06,23,00,47,13.00
2015,06,23,00,48,13.00
2015,06,23,00,49,12.90
2015,06,23,00,50,12.90
2015,06,23,00,51,12.90
2015,06,23,00,52,12.90
2015,06,23,00,53,12.80
2015,06,23,00,54,12.80
2015,06,23,00,55,12.80
2015,06,23,00,56,12.80
2015,06,23,00,57,12.80
2015,06,23,00,58,12.80
2015,06,23,00,59,12.80
2015,06,23,01,00,12.80
2015,06,23,01,01,12.80
2015,06,23,01,02,12.80
2015,06,23,01,03,12.80
2015,06,23,01,04,12.80
2015,06,23,01,05,12.80
2015,06,23,01,06,12.70
2015,06,23,01,07,12.70
2015,06,23,01,08,12.60
2015,06,23,01,09,12.60
2015,06,23,01,10,12.50
2015,06,23,01,11,12.40
2015,06,23,01,12,12.40
2015,06,23,01,13,12.30
2015,06,23,01,14,12.30
2015,06,23,01,15,12.30
2015,06,23,01,16,12.30
2015,06,23,01,17,12.20
2015,06,23,01,18,12.20
2015,06,23,01,19,12.20
2015,06,23,01,20,12.20
2015,06,23,01,21,12.10
2015,06,23,01,22,12.10
2015,06,23,01,23,12.10
2015,06,23,01,24,12.00
2015,06,23,01,25,12.00
2015,06,23,01,26,11.90
2015,06,23,01,27,11.90
2015,06,23,01,28,11.90
2015,06,23,01,29,11.90
2015,06,23,01,30,11.80
2015,06,23,01,31,11.80
2015,06,23,01,32,11.80
2015,06,23,01,33,11.80
2015,06,23,01,34,11.80
2015,06,23,01,35,11.80
2015,06,23,01,36,11.80
2015,06,23,01,37,11.70
2015,06,23,01,38,11.70
2015,06,23,01,39,11.70
2015,06,23,01,40,11.70
2015,06,23,01,41,11.70
2015,06,23,01,42,11.70
2015,06,23,01,43,11.70
2015,06,23,01,44,11.70
2015,06,23,01,45,11.70
2015,06,23,01,46,11.70
2015,06,23,01,47,11.70
2015,06,23,01,48,11.70
2015,06,23,01,49,11.70
2015,06,23,01,50,11.70
2015,06,23,01,51,11.70
2015,06,23,01,52,11.80
2015,06,23,01,53,11.80
2015,06,23,01,54,11.80
2015,06,23,01,55,11.80
2015,06,23,01,56,11.80
2015,06,23,01,57,11.80
2015,06,23,01,58,11.80
2015,06,23,01,59,11.80
2015,06,23,02,00,11.80
2015,06,23,02,01,11.80
2015,06,23,02,02,11.80
2015,06,23,02,03,11.80
2015,06,23,02,04,11.80
2015,06,23,02,05,11.90
2015,06,23,02,06,11.90
2015,06,23,02,07,11.90
2015,06,23,02,08,11.90
2015,06,23,02,09,11.90
2015,06,23,02,10,11.90
2015,06,23,02,11,11.90
2015,06,23,02,12,11.90
2015,06,23,02,13,11.90
2015,06,23,02,14,11.90
2015,06,23,02,15,11.90
2015,06,23,02,16,11.90
2015,06,23,02,17,11.90
2015,06,23,02,18,11.90
2015,06,23,02,19,12.00
2015,06,23,02,20,12.00
2015,06,23,02,21,12.00
2015,06,23,02,22,12.00
2015,06,23,02,23,12.00
2015,06,23,02,24,12.10
2015,06,23,02,25,12.10
2015,06,23,02,26,12.10
2015,06,23,02,27,12.10
2015,06,23,02,28,12.20
2015,06,23,02,29,12.20
2015,06,23,02,30,12.20
2015,06,23,02,31,12.20
2015,06,23,02,32,12.20
2015,06,23,02,33,12.20
2015,06,23,02,34,12.20
2015,06,23,02,35,12.20
2015,06,23,02,36,12.30
2015,06,23,02,37,12.30
2015,06,23,02,38,12.30
2015,06,23,02,39,12.30
2015,06,23,02,40,12.30
2015,06,23,02,41,12.30
2015,06,23,02,42,12.30
2015,06,23,02,43,12.30
2015,06,23,02,44,12.40
2015,06,23,02,45,12.40
2015,06,23,02,46,12.40
2015,06,23,02,47,12.40
2015,06,23,02,48,12.40
2015,06,23,02,49,12.40
2015,06,23,02,50,12.50
2015,06,23,02,51,12.50
2015,06,23,02,52,12.50
2015,06,23,02,53,12.50
2015,06,23,02,54,12.50
2015,06,23,02,55,12.50
2015,06,23,02,56,12.50
2015,06,23,02,57,12.50
2015,06,23,02,58,12.50
2015,06,23,02,59,12.60
2015,06,23,03,00,12.60
2015,06,23,03,01,12.60
2015,06,23,03,02,12.60
2015,06,23,03,03,12.60
2015,06,23,03,04,12.60
2015,06,23,03,05,12.60
2015,06,23,03,06,12.60
2015,06,23,03,07,12.70
2015,06,23,03,08,12.70
2015,06,23,03,09,12.70
2015,06,23,03,10,12.70
2015,06,23,03,11,12.70
2015,06,23,03,12,12.70
2015,06,23,03,13,12.70
2015,06,23,03,14,12.80
2015,06,23,03,15,12.80
2015,06,23,03,16,12.80
2015,06,23,03,17,12.80
2015,06,23,03,18,12.80
2015,06,23,03,19,12.90
2015,06,23,03,20,12.90
2015,06,23,03,21,12.90
2015,06,23,03,22,12.90
2015,06,23,03,23,12.90
2015,06,23,03,24,12.90
2015,06,23,03,25,12.90
2015,06,23,03,26,12.90
2015,06,23,03,27,12.90
2015,06,23,03,28,12.90
2015,06,23,03,29,12.90
2015,06,23,03,30,12.80
2015,06,23,03,31,12.80
2015,06,23,03,32,12.80
2015,06,23,03,33,12.80
2015,06,23,03,34,12.80
2015,06,23,03,35,12.80
2015,06,23,03,36,12.80
2015,06,23,03,37,12.80
2015,06,23,03,38,12.80
2015,06,23,03,39,12.80
2015,06,23,03,40,12.80
2015,06,23,03,41,12.80
2015,06,23,03,42,12.80
2015,06,23,03,43,12.80
2015,06,23,03,44,12.80
2015,06,23,03,45,12.80
2015,06,23,03,46,12.80
2015,06,23,03,47,12.80
2015,06,23,03,48,12.80
2015,06,23,03,49,12.80
2015,06,23,03,50,12.80
2015,06,23,03,51,12.80
2015,06,23,03,52,12.80
2015,06,23,03,53,12.80
2015,06,23,03,54,12.90
2015,06,23,03,55,12.90
2015,06,23,03,56,12.90
2015,06,23,03,57,12.90
2015,06,23,03,58,12.90
2015,06,23,03,59,12.90
2015,06,23,04,00,12.90
2015,06,23,04,01,12.90
2015,06,23,04,02,12.90
2015,06,23,04,03,12.90
2015,06,23,04,04,12.90
2015,06,23,04,05,12.90
2015,06,23,04,06,12.90
2015,06,23,04,07,12.90
2015,06,23,04,08,12.90
2015,06,23,04,09,12.90
2015,06,23,04,10,12.90
2015,06,23,04,11,12.90
2015,06,23,04,12,12.90
2015,06,23,04,13,12.90
2015,06,23,04,14,12.90
2015,06,23,04,15,12.90
2015,06,23,04,16,12.90
2015,06,23,04,17,12.90
2015,06,23,04,18,12.90
2015,06,23,04,19,12.90
2015,06,23,04,20,12.90
2015,06,23,04,21,12.90
2015,06,23,04,22,12.90
2015,06,23,04,23,12.90
2015,06,23,04,24,13.00
2015,06,23,04,25,13.00
2015,06,23,04,26,13.00
2015,06,23,04,27,13.00
2015,06,23,04,28,13.00
2015,06,23,04,29,13.00
2015,06,23,04,30,13.00
2015,06,23,04,31,13.00
2015,06,23,04,32,13.00
2015,06,23,04,33,13.00
2015,06,23,04,34,13.00
2015,06,23,04,35,13.00
2015,06,23,04,36,13.00
2015,06,23,04,37,13.00
2015,06,23,04,38,13.00
2015,06,23,04,39,13.00
2015,06,23,04,40,13.00
2015,06,23,04,41,13.00
2015,06,23,04,42,13.00
2015,06,23,04,43,13.00
2015,06,23,04,44,13.00
2015,06,23,04,45,13.10
2015,06,23,04,46,13.10
2015,06,23,04,47,13.10
2015,06,23,04,48,13.10
2015,06,23,04,49,13.10
2015,06,23,04,50,13.10
2015,06,23,04,51,13.10
2015,06,23,04,52,13.10
2015,06,23,04,53,13.10
2015,06,23,04,54,13.10
2015,06,23,04,55,13.10
2015,06,23,04,56,13.10
2015,06,23,04,57,13.20
2015,06,23,04,58,13.20
2015,06,23,04,59,13.20
2015,06,23,05,00,13.20
2015,06,23,05,01,13.20
2015,06,23,05,02,13.20
2015,06,23,05,03,13.20
2015,06,23,05,04,13.20
2015,06,23,05,05,13.20
2015,06,23,05,06,13.20
2015,06,23,05,07,13.20
2015,06,23,05,08,13.20
2015,06,23,05,09,13.20
2015,06,23,05,10,13.20
2015,06,23,05,11,13.20
2015,06,23,05,12,13.20
2015,06,23,05,13,13.10
2015,06,23,05,14,13.10
2015,06,23,05,15,13.10
2015,06,23,05,16,13.10
2015,06,23,05,17,13.10
2015,06,23,05,18,13.10
2015,06,23,05,19,13.10
2015,06,23,05,20,13.10
2015,06,23,05,21,13.10
2015,06,23,05,22,13.10
2015,06,23,05,23,13.00
2015,06,23,05,24,13.00
2015,06,23,05,25,13.00
2015,06,23,05,26,13.00
2015,06,23,05,27,13.00
2015,06,23,05,28,13.00
2015,06,23,05,29,13.00
2015,06,23,05,30,13.00
2015,06,23,05,31,13.00
2015,06,23,05,32,13.00
2015,06,23,05,33,13.00
2015,06,23,05,34,13.00
2015,06,23,05,35,13.00
2015,06,23,05,36,13.00
2015,06,23,05,37,13.00
2015,06,23,05,38,13.00
2015,06,23,05,39,13.00
2015,06,23,05,40,13.00
2015,06,23,05,41,13.00
2015,06,23,05,42,13.00
2015,06,23,05,43,13.00
2015,06,23,05,44,13.00
2015,06,23,05,45,13.00
2015,06,23,05,46,13.10
2015,06,23,05,47,13.10
2015,06,23,05,48,13.10
2015,06,23,05,49,13.10
2015,06,23,05,50,13.10
2015,06,23,05,51,13.10
2015,06,23,05,52,13.10
2015,06,23,05,53,13.10
2015,06,23,05,54,13.10
2015,06,23,05,55,13.10
2015,06,23,05,56,13.20
2015,06,23,05,57,13.20
2015,06,23,05,58,13.20
2015,06,23,05,59,13.20
2015,06,23,06,00,13.20
2015,06,23,06,01,13.20
2015,06,23,06,02,13.20
2015,06,23,06,03,13.20
2015,06,23,06,04,13.20
2015,06,23,06,05,13.20
2015,06,23,06,06,13.20
2015,06,23,06,07,13.20
2015,06,23,06,08,13.20
2015,06,23,06,09,13.20
2015,06,23,06,10,13.20
2015,06,23,06,11,13.30
2015,06,23,06,12,13.30
2015,06,23,06,13,13.30
2015,06,23,06,14,13.30
2015,06,23,06,15,13.30
2015,06,23,06,16,13.30
2015,06,23,06,17,13.30
2015,06,23,06,18,13.30
2015,06,23,06,19,13.30
2015,06,23,06,20,13.30
2015,06,23,06,21,13.40
2015,06,23,06,22,13.40
2015,06,23,06,23,13.40
2015,06,23,06,24,13.40
2015,06,23,06,25,13.40
2015,06,23,06,26,13.40
2015,06,23,06,27,13.40
2015,06,23,06,28,13.40
2015,06,23,06,29,13.40
2015,06,23,06,30,13.40
2015,06,23,06,31,13.50
2015,06,23,06,32,13.50
2015,06,23,06,33,13.50
2015,06,23,06,34,13.50
2015,06,23,06,35,13.50
2015,06,23,06,36,13.50
2015,06,23,06,37,13.50
2015,06,23,06,38,13.50
2015,06,23,06,39,13.50
2015,06,23,06,40,13.50
2015,06,23,06,41,13.50
2015,06,23,06,42,13.50
2015,06,23,06,43,13.40
2015,06,23,06,44,13.50
2015,06,23,06,45,13.50
2015,06,23,06,46,13.50
2015,06,23,06,47,13.50
2015,06,23,06,48,13.50
2015,06,23,06,49,13.50
2015,06,23,06,50,13.50
2015,06,23,06,51,13.50
2015,06,23,06,52,13.50
2015,06,23,06,53,13.50
2015,06,23,06,54,13.60
2015,06,23,06,55,13.60
2015,06,23,06,56,13.60
2015,06,23,06,57,13.60
2015,06,23,06,58,13.60
2015,06,23,06,59,13.60
2015,06,23,07,00,13.60
2015,06,23,07,01,13.60
2015,06,23,07,02,13.60
2015,06,23,07,03,13.60
2015,06,23,07,04,13.60
2015,06,23,07,05,13.60
2015,06,23,07,06,13.60
2015,06,23,07,07,13.60
2015,06,23,07,08,13.60
2015,06,23,07,09,13.60
2015,06,23,07,10,13.60
2015,06,23,07,11,13.70
2015,06,23,07,12,13.70
2015,06,23,07,13,13.70
2015,06,23,07,14,13.70
2015,06,23,07,15,13.70
2015,06,23,07,16,13.80
2015,06,23,07,17,13.80
2015,06,23,07,18,13.80
2015,06,23,07,19,13.80
2015,06,23,07,20,13.80
2015,06,23,07,21,13.80
2015,06,23,07,22,13.80
2015,06,23,07,23,13.80
2015,06,23,07,24,13.80
2015,06,23,07,25,13.80
2015,06,23,07,26,13.90
2015,06,23,07,27,13.90
2015,06,23,07,28,13.90
2015,06,23,07,29,13.90
2015,06,23,07,30,13.90
2015,06,23,07,31,13.90
2015,06,23,07,32,13.90
2015,06,23,07,33,13.90
2015,06,23,07,34,13.90
2015,06,23,07,35,14.00
2015,06,23,07,36,14.00
2015,06,23,07,37,14.00
2015,06,23,07,38,14.10
2015,06,23,07,39,14.10
2015,06,23,07,40,14.10
2015,06,23,07,41,14.20
2015,06,23,07,42,14.20
2015,06,23,07,43,14.20
2015,06,23,07,44,14.30
2015,06,23,07,45,14.30
2015,06,23,07,46,14.30
2015,06,23,07,47,14.40
2015,06,23,07,48,14.40
2015,06,23,07,49,14.40
2015,06,23,07,50,14.40
2015,06,23,07,51,14.40
2015,06,23,07,52,14.40
2015,06,23,07,53,14.40
2015,06,23,07,54,14.40
2015,06,23,07,55,14.40
2015,06,23,07,56,14.40
2015,06,23,07,57,14.40
2015,06,23,07,58,14.40
2015,06,23,07,59,14.40
2015,06,23,08,00,14.40
2015,06,23,08,01,14.40
2015,06,23,08,02,14.50
2015,06,23,08,03,14.50
2015,06,23,08,04,14.50
2015,06,23,08,05,14.50
2015,06,23,08,06,14.40
2015,06,23,08,07,14.40
2015,06,23,08,08,14.40
2015,06,23,08,09,14.40
2015,06,23,08,10,14.40
2015,06,23,08,11,14.40
2015,06,23,08,12,14.40
2015,06,23,08,13,14.50
2015,06,23,08,14,14.50
2015,06,23,08,15,14.50
2015,06,23,08,16,14.50
2015,06,23,08,17,14.60
2015,06,23,08,18,14.60
2015,06,23,08,19,14.60
2015,06,23,08,20,14.60
2015,06,23,08,21,14.70
2015,06,23,08,22,14.70
2015,06,23,08,23,14.80
2015,06,23,08,24,14.90
2015,06,23,08,25,15.00
2015,06,23,08,26,15.10
2015,06,23,08,27,15.30
2015,06,23,08,28,15.40
2015,06,23,08,29,15.60
2015,06,23,08,30,15.70
2015,06,23,08,31,15.80
2015,06,23,08,32,15.90
2015,06,23,08,33,16.00
2015,06,23,08,34,16.10
2015,06,23,08,35,16.20
2015,06,23,08,36,16.30
2015,06,23,08,37,16.30
2015,06,23,08,38,16.40
2015,06,23,08,39,16.40
2015,06,23,08,40,16.50
2015,06,23,08,41,16.50
2015,06,23,08,42,16.60
2015,06,23,08,43,16.60
2015,06,23,08,44,16.60
2015,06,23,08,45,16.70
2015,06,23,08,46,16.70
2015,06,23,08,47,16.70
2015,06,23,08,48,16.70
2015,06,23,08,49,16.70
2015,06,23,08,50,16.70
2015,06,23,08,51,16.60
2015,06,23,08,52,16.60
2015,06,23,08,53,16.60
2015,06,23,08,54,16.60
2015,06,23,08,55,16.60
2015,06,23,08,56,16.60
2015,06,23,08,57,16.60
2015,06,23,08,58,16.60
2015,06,23,08,59,16.60
2015,06,23,09,00,16.50
2015,06,23,09,01,16.50
2015,06,23,09,02,16.50
2015,06,23,09,03,16.50
2015,06,23,09,04,16.50
2015,06,23,09,05,16.50
2015,06,23,09,06,16.50
2015,06,23,09,07,16.60
2015,06,23,09,08,16.60
2015,06,23,09,09,16.60
2015,06,23,09,10,16.70
2015,06,23,09,11,16.80
2015,06,23,09,12,16.90
2015,06,23,09,13,16.90
2015,06,23,09,14,17.00
2015,06,23,09,15,17.00
2015,06,23,09,16,17.00
2015,06,23,09,17,16.90
2015,06,23,09,18,16.90
2015,06,23,09,19,17.00
2015,06,23,09,20,17.00
2015,06,23,09,21,16.90
2015,06,23,09,22,16.90
2015,06,23,09,23,16.90
2015,06,23,09,24,16.90
2015,06,23,09,25,16.90
2015,06,23,09,26,17.00
2015,06,23,09,27,17.10
2015,06,23,09,28,17.10
2015,06,23,09,29,17.20
2015,06,23,09,30,17.30
2015,06,23,09,31,17.40
2015,06,23,09,32,17.50
2015,06,23,09,33,17.50
2015,06,23,09,34,17.60
2015,06,23,09,35,17.60
2015,06,23,09,36,17.70
2015,06,23,09,37,17.80
2015,06,23,09,38,17.90
2015,06,23,09,39,17.90
2015,06,23,09,40,17.90
2015,06,23,09,41,17.90
2015,06,23,09,42,18.00
2015,06,23,09,43,18.00
2015,06,23,09,44,18.00
2015,06,23,09,45,18.10
2015,06,23,09,46,18.10
2015,06,23,09,47,18.20
2015,06,23,09,48,18.30
2015,06,23,09,49,18.40
2015,06,23,09,50,18.50
2015,06,23,09,51,18.60
2015,06,23,09,52,18.60
2015,06,23,09,53,18.70
2015,06,23,09,54,18.80
2015,06,23,09,55,18.80
2015,06,23,09,56,18.80
2015,06,23,09,57,18.70
2015,06,23,09,58,18.60
2015,06,23,09,59,18.60
2015,06,23,10,00,18.60
2015,06,23,10,01,18.60
2015,06,23,10,02,18.60
2015,06,23,10,03,18.70
2015,06,23,10,04,18.80
2015,06,23,10,05,18.80
2015,06,23,10,06,18.80
2015,06,23,10,07,18.80
2015,06,23,10,08,18.70
2015,06,23,10,09,18.60
2015,06,23,10,10,18.60
2015,06,23,10,11,18.60
2015,06,23,10,12,18.70
2015,06,23,10,13,18.80
2015,06,23,10,14,18.90
2015,06,23,10,15,19.00
2015,06,23,10,16,19.00
2015,06,23,10,17,19.10
2015,06,23,10,18,19.10
2015,06,23,10,19,19.10
2015,06,23,10,20,19.20
2015,06,23,10,21,19.20
2015,06,23,10,22,19.20
2015,06,23,10,23,19.20
2015,06,23,10,24,19.20
2015,06,23,10,25,19.20
2015,06,23,10,26,19.20
2015,06,23,10,27,19.20
2015,06,23,10,28,19.20
2015,06,23,10,29,19.30
2015,06,23,10,30,19.30
2015,06,23,10,31,19.40
2015,06,23,10,32,19.40
2015,06,23,10,33,19.50
2015,06,23,10,34,19.50
2015,06,23,10,35,19.60
2015,06,23,10,36,19.60
2015,06,23,10,37,19.70
2015,06,23,10,38,19.70
2015,06,23,10,39,19.70
2015,06,23,10,40,19.70
2015,06,23,10,41,19.70
2015,06,23,10,42,19.60
2015,06,23,10,43,19.60
2015,06,23,10,44,19.60
2015,06,23,10,45,19.60
2015,06,23,10,46,19.60
2015,06,23,10,47,19.70
2015,06,23,10,48,19.70
2015,06,23,10,49,19.70
2015,06,23,10,50,19.80
2015,06,23,10,51,19.80
2015,06,23,10,52,19.90
2015,06,23,10,53,20.00
2015,06,23,10,54,20.10
2015,06,23,10,55,20.20
2015,06,23,10,56,20.40
2015,06,23,10,57,20.50
2015,06,23,10,58,20.50
2015,06,23,10,59,20.60
2015,06,23,11,00,20.50
2015,06,23,11,01,20.50
2015,06,23,11,02,20.50
2015,06,23,11,03,20.60
2015,06,23,11,04,20.60
2015,06,23,11,05,20.60
2015,06,23,11,06,20.70
2015,06,23,11,07,20.70
2015,06,23,11,08,20.70
2015,06,23,11,09,20.70
2015,06,23,11,10,20.70
2015,06,23,11,11,20.70
2015,06,23,11,12,20.80
2015,06,23,11,13,20.80
2015,06,23,11,14,20.80
2015,06,23,11,15,20.80
2015,06,23,11,16,20.90
2015,06,23,11,17,20.90
2015,06,23,11,18,20.90
2015,06,23,11,19,21.00
2015,06,23,11,20,21.10
2015,06,23,11,21,21.10
2015,06,23,11,22,21.10
2015,06,23,11,23,21.10
2015,06,23,11,24,21.10
2015,06,23,11,25,21.10
2015,06,23,11,26,21.20
2015,06,23,11,27,21.20
2015,06,23,11,28,21.20
2015,06,23,11,29,21.20
2015,06,23,11,30,21.10
2015,06,23,11,31,21.20
2015,06,23,11,32,21.10
2015,06,23,11,33,21.10
2015,06,23,11,34,21.10
2015,06,23,11,35,21.20
2015,06,23,11,36,21.20
2015,06,23,11,37,21.30
2015,06,23,11,38,21.30
2015,06,23,11,39,21.20
2015,06,23,11,40,21.20
2015,06,23,11,41,21.20
2015,06,23,11,42,21.10
2015,06,23,11,43,21.00
2015,06,23,11,44,21.00
2015,06,23,11,45,21.00
2015,06,23,11,46,21.10
2015,06,23,11,47,21.20
2015,06,23,11,48,21.30
2015,06,23,11,49,21.30
2015,06,23,11,50,21.30
2015,06,23,11,51,21.40
2015,06,23,11,52,21.40
2015,06,23,11,53,21.40
2015,06,23,11,54,21.50
2015,06,23,11,55,21.50
2015,06,23,11,56,21.50
2015,06,23,11,57,21.60
2015,06,23,11,58,21.60
2015,06,23,11,59,21.70
2015,06,23,12,00,21.60
2015,06,23,12,01,21.70
2015,06,23,12,02,21.70
2015,06,23,12,03,21.70
2015,06,23,12,04,21.80
2015,06,23,12,05,21.90
2015,06,23,12,06,21.90
2015,06,23,12,07,22.00
2015,06,23,12,08,22.00
2015,06,23,12,09,22.10
2015,06,23,12,10,22.10
2015,06,23,12,11,22.20
2015,06,23,12,12,22.20
2015,06,23,12,13,22.20
2015,06,23,12,14,22.10
2015,06,23,12,15,22.00
2015,06,23,12,16,22.00
2015,06,23,12,17,22.00
2015,06,23,12,18,22.00
2015,06,23,12,19,22.00
2015,06,23,12,20,22.10
2015,06,23,12,21,22.20
2015,06,23,12,22,22.30
2015,06,23,12,23,22.40
2015,06,23,12,24,22.50
2015,06,23,12,25,22.60
2015,06,23,12,26,22.60
2015,06,23,12,27,22.60
2015,06,23,12,28,22.60
2015,06,23,12,29,22.60
2015,06,23,12,30,22.50
2015,06,23,12,31,22.50
2015,06,23,12,32,22.60
2015,06,23,12,33,22.60
2015,06,23,12,34,22.60
2015,06,23,12,35,22.60
2015,06,23,12,36,22.70
2015,06,23,12,37,22.70
2015,06,23,12,38,22.80
2015,06,23,12,39,22.90
2015,06,23,12,40,22.90
2015,06,23,12,41,22.90
2015,06,23,12,42,23.00
2015,06,23,12,43,23.00
2015,06,23,12,44,23.00
2015,06,23,12,45,23.10
2015,06,23,12,46,23.10
2015,06,23,12,47,23.10
2015,06,23,12,48,23.10
2015,06,23,12,49,23.10
2015,06,23,12,50,23.10
2015,06,23,12,51,23.10
2015,06,23,12,52,23.10
2015,06,23,12,53,23.10
2015,06,23,12,54,23.10
2015,06,23,12,55,23.10
2015,06,23,12,56,23.10
2015,06,23,12,57,23.10
2015,06,23,12,58,23.20
2015,06,23,12,59,23.20
2015,06,23,13,00,23.20
2015,06,23,13,01,23.20
2015,06,23,13,02,23.20
2015,06,23,13,03,23.20
2015,06,23,13,04,23.20
2015,06,23,13,05,23.20
2015,06,23,13,06,23.20
2015,06,23,13,07,23.20
2015,06,23,13,08,23.10
2015,06,23,13,09,23.10
2015,06,23,13,10,23.20
2015,06,23,13,11,23.30
2015,06,23,13,12,23.30
2015,06,23,13,13,23.30
2015,06,23,13,14,23.30
2015,06,23,13,15,23.30
2015,06,23,13,16,23.40
2015,06,23,13,17,23.50
2015,06,23,13,18,23.60
2015,06,23,13,19,23.60
2015,06,23,13,20,23.60
2015,06,23,13,21,23.60
2015,06,23,13,22,23.60
2015,06,23,13,23,23.60
2015,06,23,13,24,23.70
2015,06,23,13,25,23.70
2015,06,23,13,26,23.60
2015,06,23,13,27,23.70
2015,06,23,13,28,23.70
2015,06,23,13,29,23.80
2015,06,23,13,30,23.80
2015,06,23,13,31,23.90
2015,06,23,13,32,23.90
2015,06,23,13,33,23.90
2015,06,23,13,34,23.90
2015,06,23,13,35,24.00
2015,06,23,13,36,23.90
2015,06,23,13,37,23.80
2015,06,23,13,38,23.80
2015,06,23,13,39,23.70
2015,06,23,13,40,23.60
2015,06,23,13,41,23.60
2015,06,23,13,42,23.60
2015,06,23,13,43,23.60
2015,06,23,13,44,23.70
2015,06,23,13,45,23.80
2015,06,23,13,46,23.80
2015,06,23,13,47,23.80
2015,06,23,13,48,23.80
2015,06,23,13,49,23.70
2015,06,23,13,50,23.60
2015,06,23,13,51,23.60
2015,06,23,13,52,23.60
2015,06,23,13,53,23.60
2015,06,23,13,54,23.60
2015,06,23,13,55,23.60
2015,06,23,13,56,23.60
2015,06,23,13,57,23.60
2015,06,23,13,58,23.60
2015,06,23,13,59,23.70
2015,06,23,14,00,23.70
2015,06,23,14,01,23.80
2015,06,23,14,02,23.90
2015,06,23,14,03,23.90
2015,06,23,14,04,23.90
2015,06,23,14,05,23.80
2015,06,23,14,06,23.70
2015,06,23,14,07,23.70
2015,06,23,14,08,23.70
2015,06,23,14,09,23.70
2015,06,23,14,10,23.60
2015,06,23,14,11,23.60
2015,06,23,14,12,23.60
2015,06,23,14,13,23.60
2015,06,23,14,14,23.70
2015,06,23,14,15,23.70
2015,06,23,14,16,23.70
2015,06,23,14,17,23.70
2015,06,23,14,18,23.70
2015,06,23,14,19,23.70
2015,06,23,14,20,23.80
2015,06,23,14,21,23.80
2015,06,23,14,22,23.90
2015,06,23,14,23,23.90
2015,06,23,14,24,23.90
2015,06,23,14,25,24.00
2015,06,23,14,26,24.00
2015,06,23,14,27,24.00
2015,06,23,14,28,24.00
2015,06,23,14,29,23.90
2015,06,23,14,30,23.80
2015,06,23,14,31,23.80
2015,06,23,14,32,23.80
2015,06,23,14,33,23.70
2015,06,23,14,34,23.70
2015,06,23,14,35,23.70
2015,06,23,14,36,23.70
2015,06,23,14,37,23.80
2015,06,23,14,38,23.90
2015,06,23,14,39,24.00
2015,06,23,14,40,24.00
2015,06,23,14,41,24.00
2015,06,23,14,42,24.00
2015,06,23,14,43,23.90
2015,06,23,14,44,23.80
2015,06,23,14,45,23.90
2015,06,23,14,46,23.90
2015,06,23,14,47,23.90
2015,06,23,14,48,23.90
2015,06,23,14,49,23.90
2015,06,23,14,50,23.90
2015,06,23,14,51,23.80
2015,06,23,14,52,23.80
2015,06,23,14,53,23.70
2015,06,23,14,54,23.80
2015,06,23,14,55,23.80
2015,06,23,14,56,23.90
2015,06,23,14,57,23.90
2015,06,23,14,58,24.00
2015,06,23,14,59,24.00
2015,06,23,15,00,24.00
2015,06,23,15,01,24.20
2015,06,23,15,02,24.20
2015,06,23,15,03,24.10
2015,06,23,15,04,24.00
2015,06,23,15,05,24.00
2015,06,23,15,06,23.90
2015,06,23,15,07,23.90
2015,06,23,15,08,23.90
2015,06,23,15,09,23.90
2015,06,23,15,10,23.90
2015,06,23,15,11,23.90
2015,06,23,15,12,24.00
2015,06,23,15,13,23.90
2015,06,23,15,14,23.90
2015,06,23,15,15,23.90
2015,06,23,15,16,23.90
2015,06,23,15,17,23.90
2015,06,23,15,18,23.90
2015,06,23,15,19,24.00
2015,06,23,15,20,24.00
2015,06,23,15,21,24.10
2015,06,23,15,22,24.10
2015,06,23,15,23,24.10
2015,06,23,15,24,24.00
2015,06,23,15,25,24.00
2015,06,23,15,26,23.90
2015,06,23,15,27,23.90
2015,06,23,15,28,23.90
2015,06,23,15,29,23.90
2015,06,23,15,30,23.90
2015,06,23,15,31,24.00
2015,06,23,15,32,24.00
2015,06,23,15,33,24.00
2015,06,23,15,34,24.00
2015,06,23,15,35,24.10
2015,06,23,15,36,24.10
2015,06,23,15,37,24.10
2015,06,23,15,38,24.10
2015,06,23,15,39,24.00
2015,06,23,15,40,24.00
2015,06,23,15,41,24.10
2015,06,23,15,42,24.00
2015,06,23,15,43,24.00
2015,06,23,15,44,24.00
2015,06,23,15,45,24.00
2015,06,23,15,46,24.00
2015,06,23,15,47,24.10
2015,06,23,15,48,24.10
2015,06,23,15,49,24.10
2015,06,23,15,50,24.10
2015,06,23,15,51,24.00
2015,06,23,15,52,24.00
2015,06,23,15,53,23.90
2015,06,23,15,54,23.90
2015,06,23,15,55,23.90
2015,06,23,15,56,23.80
2015,06,23,15,57,23.80
2015,06,23,15,58,23.80
2015,06,23,15,59,23.80
2015,06,23,16,00,23.80
2015,06,23,16,01,23.90
2015,06,23,16,02,23.90
2015,06,23,16,03,23.90
2015,06,23,16,04,23.90
2015,06,23,16,05,23.90
2015,06,23,16,06,23.90
2015,06,23,16,07,24.00
2015,06,23,16,08,24.00
2015,06,23,16,09,24.10
2015,06,23,16,10,24.10
2015,06,23,16,11,24.10
2015,06,23,16,12,24.10
2015,06,23,16,13,24.10
2015,06,23,16,14,24.10
2015,06,23,16,15,24.10
2015,06,23,16,16,24.00
2015,06,23,16,17,24.00
2015,06,23,16,18,24.00
2015,06,23,16,19,24.00
2015,06,23,16,20,24.00
2015,06,23,16,21,24.00
2015,06,23,16,22,24.10
2015,06,23,16,23,24.20
2015,06,23,16,24,24.10
2015,06,23,16,25,24.10
2015,06,23,16,26,24.00
2015,06,23,16,27,23.90
2015,06,23,16,28,23.90
2015,06,23,16,29,23.80
2015,06,23,16,30,23.80
2015,06,23,16,31,23.70
2015,06,23,16,32,23.60
2015,06,23,16,33,23.60
2015,06,23,16,34,23.60
2015,06,23,16,35,23.50
2015,06,23,16,36,23.50
2015,06,23,16,37,23.40
2015,06,23,16,38,23.40
2015,06,23,16,39,23.30
2015,06,23,16,40,23.40
2015,06,23,16,41,23.40
2015,06,23,16,42,23.40
2015,06,23,16,43,23.50
2015,06,23,16,44,23.50
2015,06,23,16,45,23.60
2015,06,23,16,46,23.60
2015,06,23,16,47,23.50
2015,06,23,16,48,23.40
2015,06,23,16,49,23.40
2015,06,23,16,50,23.30
2015,06,23,16,51,23.30
2015,06,23,16,52,23.20
2015,06,23,16,53,23.20
2015,06,23,16,54,23.20
2015,06,23,16,55,23.20
2015,06,23,16,56,23.20
2015,06,23,16,57,23.20
2015,06,23,16,58,23.20
2015,06,23,16,59,23.20
2015,06,23,17,00,23.20
2015,06,23,17,01,23.20
2015,06,23,17,02,23.20
2015,06,23,17,03,23.20
2015,06,23,17,04,23.20
2015,06,23,17,05,23.20
2015,06,23,17,06,23.20
2015,06,23,17,07,23.20
2015,06,23,17,08,23.20
2015,06,23,17,09,23.20
2015,06,23,17,10,23.20
2015,06,23,17,11,23.20
2015,06,23,17,12,23.20
2015,06,23,17,13,23.10
2015,06,23,17,14,23.10
2015,06,23,17,15,23.00
2015,06,23,17,16,23.10
2015,06,23,17,17,23.10
2015,06,23,17,18,23.10
2015,06,23,17,19,23.10